Location: Cambroso
(45.2833°N, 12.0850°E)
Time: 10:16:18
(UTC+00:00)

USA 267 - Pass Details

Date: 21 January 2021
Orbit: 1102 x 1106 km, 123.0° (Epoch: 22 February)

Event Time Altitude Azimuth Distance (km) Brightness Sun altitude
Exits shadow 19:07:18 62° 190° (S) 1,225 3.4 -32.0°
Drops below altitude 10° 19:12:50 10° 223° (SW) 2,955 5.9 -33.0°
Sets 19:15:19 0° 225° (SW) 3,910 6.6 -33.4°
